When you browse on this site, cookies collect data to enhance your experience and personalize the content and advertising you see.
Visit our Privacy Policy to learn more. By continuing to use the site, you agree to this use of cookies and data.
  • In United Kingdom
  • List of Countries
  • For 7 days
  • Water Temperature
  • Weather Map
  • Weather Widgets
  • user-avatar
    Login

    Hourly Weather Koeln

    Today, 15 October, Tuesday

    Time Temperature Precipitation Wind Pressure Humidity
    00:00 +17°C° 0 mm 3 mps 751 mmHg 76%
    01:00 +17°C° 0 mm 2 mps 750 mmHg 78%
    02:00 +17°C° 0 mm 2 mps 750 mmHg 79%
    03:00 +16°C° 0 mm 2 mps 750 mmHg 81%
    04:00 +16°C° 0 mm 2 mps 749 mmHg 82%
    05:00 +16°C° 0 mm 2 mps 749 mmHg 83%
    06:00 +16°C° 0 mm 2 mps 749 mmHg 84%
    07:00 +17°C° 0 mm 2 mps 749 mmHg 79%
    08:00 +18°C° 0 mm 3 mps 749 mmHg 75%
    09:00 +20°C° 0 mm 3 mps 749 mmHg 70%
    10:00 +20°C° 0 mm 3 mps 749 mmHg 69%
    11:00 +20°C° 0 mm 3 mps 749 mmHg 68%
    12:00 +21°C° 0 mm 3 mps 749 mmHg 67%
    13:00 +19°C° 1.1 mm 3 mps 749 mmHg 74%
    14:00 +17°C° 1.1 mm 3 mps 749 mmHg 82%
    15:00 +15°C° 1.1 mm 4 mps 748 mmHg 90%
    16:00 +14°C° 3 mm 4 mps 749 mmHg 91%
    17:00 +14°C° 3 mm 3 mps 749 mmHg 91%
    18:00 +13°C° 3 mm 3 mps 750 mmHg 92%
    19:00 +13°C° 1.5 mm 3 mps 750 mmHg 89%
    20:00 +13°C° 1.5 mm 4 mps 751 mmHg 87%
    21:00 +12°C° 1.5 mm 4 mps 751 mmHg 84%
    22:00 +12°C° 0.3 mm 4 mps 751 mmHg 83%
    23:00 +12°C° 0.3 mm 3 mps 752 mmHg 83%

    Tomorrow, 16 October, Wednesday

    Time Temperature Precipitation Wind Pressure Humidity
    00:00 +12°C° 0.3 mm 3 mps 752 mmHg 82%
    01:00 +11°C° 0.1 mm 3 mps 752 mmHg 82%
    02:00 +11°C° 0.1 mm 4 mps 752 mmHg 82%
    03:00 +11°C° 0.1 mm 4 mps 752 mmHg 83%
    04:00 +10°C° 0 mm 4 mps 752 mmHg 83%
    05:00 +10°C° 0 mm 4 mps 752 mmHg 83%
    06:00 +10°C° 0 mm 3 mps 752 mmHg 83%
    07:00 +11°C° 0 mm 4 mps 752 mmHg 81%
    08:00 +12°C° 0 mm 4 mps 753 mmHg 78%
    09:00 +13°C° 0 mm 5 mps 753 mmHg 76%
    10:00 +13°C° 0 mm 5 mps 753 mmHg 76%
    11:00 +14°C° 0 mm 5 mps 753 mmHg 76%
    12:00 +14°C° 0 mm 5 mps 752 mmHg 77%
    13:00 +14°C° 0.3 mm 4 mps 752 mmHg 78%
    14:00 +14°C° 0.3 mm 4 mps 752 mmHg 79%
    15:00 +13°C° 0.3 mm 4 mps 752 mmHg 81%
    16:00 +13°C° 0.1 mm 3 mps 752 mmHg 79%
    17:00 +14°C° 0.1 mm 3 mps 752 mmHg 78%
    18:00 +14°C° 0.1 mm 3 mps 752 mmHg 76%
    19:00 +14°C° 0.1 mm 3 mps 752 mmHg 76%
    20:00 +14°C° 0.1 mm 3 mps 752 mmHg 77%
    21:00 +14°C° 0.1 mm 3 mps 753 mmHg 78%
    22:00 +13°C° 0.7 mm 4 mps 753 mmHg 80%
    23:00 +13°C° 0.7 mm 4 mps 752 mmHg 82%

    Day after tomorrow, 17 October, Thursday

    Time Temperature Precipitation Wind Pressure Humidity
    00:00 +13°C° 0.7 mm 4 mps 752 mmHg 85%
    01:00 +13°C° 0.6 mm 4 mps 752 mmHg 85%
    02:00 +13°C° 0.6 mm 4 mps 752 mmHg 85%
    03:00 +13°C° 0.6 mm 4 mps 752 mmHg 85%
    04:00 +13°C° 0.2 mm 3 mps 752 mmHg 86%
    05:00 +13°C° 0.2 mm 3 mps 753 mmHg 86%
    06:00 +13°C° 0.2 mm 3 mps 753 mmHg 87%
    07:00 +14°C° 0.1 mm 3 mps 753 mmHg 85%
    08:00 +14°C° 0.1 mm 4 mps 754 mmHg 82%
    09:00 +15°C° 0.1 mm 4 mps 754 mmHg 80%
    10:00 +15°C° 0.1 mm 4 mps 754 mmHg 75%
    11:00 +17°C° 0.1 mm 4 mps 755 mmHg 70%
    12:00 +17°C° 0.1 mm 4 mps 755 mmHg 65%
    13:00 +17°C° 0.1 mm 3 mps 755 mmHg 67%
    14:00 +16°C° 0.1 mm 3 mps 755 mmHg 68%
    15:00 +16°C° 0.1 mm 3 mps 755 mmHg 69%
    16:00 +14°C° 0 mm 3 mps 755 mmHg 71%
    17:00 +13°C° 0 mm 3 mps 755 mmHg 72%
    18:00 +13°C° 0 mm 2 mps 756 mmHg 73%
    19:00 +13°C° 0 mm 2 mps 756 mmHg 76%
    20:00 +12°C° 0 mm 2 mps 756 mmHg 78%
    21:00 +12°C° 0 mm 2 mps 756 mmHg 80%
    22:00 +12°C° 0 mm 2 mps 756 mmHg 81%
    23:00 +12°C° 0 mm 2 mps 756 mmHg 83%

    18 October, Friday

    Time Temperature Precipitation Wind Pressure Humidity
    00:00 +12°C° 0 mm 2 mps 755 mmHg 84%
    01:00 +12°C° 0.1 mm 2 mps 755 mmHg 85%
    02:00 +11°C° 0.1 mm 3 mps 755 mmHg 87%
    03:00 +12°C° 0.1 mm 3 mps 755 mmHg 88%
    04:00 +12°C° 0.5 mm 3 mps 754 mmHg 89%
    05:00 +12°C° 0.5 mm 3 mps 754 mmHg 90%
    06:00 +12°C° 0.5 mm 3 mps 754 mmHg 91%
    07:00 +13°C° 0.2 mm 4 mps 754 mmHg 88%
    08:00 +14°C° 0.2 mm 4 mps 754 mmHg 86%
    09:00 +14°C° 0.2 mm 4 mps 754 mmHg 83%
    10:00 +15°C° 0.2 mm 4 mps 755 mmHg 75%
    11:00 +16°C° 0.2 mm 5 mps 755 mmHg 68%
    12:00 +16°C° 0.2 mm 5 mps 755 mmHg 61%
    13:00 +17°C° 0 mm 4 mps 755 mmHg 61%
    14:00 +17°C° 0 mm 4 mps 755 mmHg 61%
    15:00 +17°C° 0 mm 3 mps 755 mmHg 61%
    16:00 +16°C° 0 mm 3 mps 755 mmHg 66%
    17:00 +13°C° 0 mm 3 mps 755 mmHg 71%
    18:00 +13°C° 0 mm 2 mps 755 mmHg 77%
    19:00 +12°C° 0 mm 3 mps 755 mmHg 78%
    20:00 +11°C° 0 mm 3 mps 756 mmHg 79%
    21:00 +11°C° 0 mm 3 mps 756 mmHg 80%
    22:00 +11°C° 0 mm 3 mps 755 mmHg 81%
    23:00 +11°C° 0 mm 3 mps 755 mmHg 82%

    19 October, Saturday

    Time Temperature Precipitation Wind Pressure Humidity
    00:00 +10°C° 0 mm 3 mps 755 mmHg 83%
    01:00 +10°C° 0 mm 3 mps 755 mmHg 83%
    02:00 +10°C° 0 mm 3 mps 755 mmHg 83%
    03:00 +10°C° 0 mm 3 mps 754 mmHg 83%
    04:00 +10°C° 0 mm 3 mps 754 mmHg 84%
    05:00 +10°C° 0 mm 3 mps 754 mmHg 85%
    06:00 +10°C° 0 mm 3 mps 754 mmHg 85%
    07:00 +11°C° 0 mm 3 mps 754 mmHg 81%
    08:00 +13°C° 0 mm 4 mps 754 mmHg 78%
    09:00 +14°C° 0 mm 4 mps 753 mmHg 74%
    10:00 +15°C° 0 mm 4 mps 753 mmHg 70%
    11:00 +15°C° 0 mm 4 mps 753 mmHg 67%
    12:00 +17°C° 0 mm 4 mps 752 mmHg 64%
    13:00 +17°C° 0 mm 3 mps 752 mmHg 66%
    14:00 +17°C° 0 mm 3 mps 751 mmHg 68%
    15:00 +17°C° 0 mm 2 mps 751 mmHg 71%
    16:00 +16°C° 0.2 mm 2 mps 750 mmHg 75%
    17:00 +15°C° 0.2 mm 2 mps 750 mmHg 80%
    18:00 +14°C° 0.2 mm 2 mps 749 mmHg 84%
    19:00 +14°C° 2.3 mm 2 mps 749 mmHg 87%
    20:00 +13°C° 2.3 mm 3 mps 749 mmHg 89%
    21:00 +13°C° 2.3 mm 3 mps 748 mmHg 92%
    22:00 +13°C° 0.6 mm 3 mps 748 mmHg 91%
    23:00 +12°C° 0.6 mm 3 mps 748 mmHg 90%

    20 October, Sunday

    Time Temperature Precipitation Wind Pressure Humidity
    00:00 +13°C° 0.6 mm 2 mps 747 mmHg 89%
    01:00 +12°C° 0 mm 3 mps 747 mmHg 88%
    02:00 +12°C° 0 mm 3 mps 747 mmHg 87%
    03:00 +12°C° 0 mm 3 mps 747 mmHg 86%
    04:00 +12°C° 0 mm 3 mps 747 mmHg 86%
    05:00 +12°C° 0 mm 3 mps 748 mmHg 85%
    06:00 +11°C° 0 mm 3 mps 748 mmHg 85%
    07:00 +12°C° 0.1 mm 4 mps 748 mmHg 82%
    08:00 +12°C° 0.1 mm 4 mps 748 mmHg 80%
    09:00 +13°C° 0.1 mm 4 mps 749 mmHg 77%
    10:00 +13°C° 0.1 mm 5 mps 749 mmHg 71%
    11:00 +14°C° 0.1 mm 5 mps 749 mmHg 65%
    12:00 +15°C° 0.1 mm 5 mps 750 mmHg 59%
    13:00 +15°C° 0.1 mm 5 mps 750 mmHg 61%
    14:00 +14°C° 0.1 mm 4 mps 750 mmHg 63%
    15:00 +14°C° 0.1 mm 4 mps 750 mmHg 64%
    16:00 +13°C° 0 mm 4 mps 750 mmHg 69%
    17:00 +12°C° 0 mm 3 mps 751 mmHg 74%
    18:00 +10°C° 0 mm 3 mps 751 mmHg 79%
    19:00 +10°C° 0 mm 3 mps 752 mmHg 79%
    20:00 +10°C° 0 mm 3 mps 752 mmHg 79%
    21:00 +9°C° 0 mm 3 mps 753 mmHg 78%
    22:00 +9°C° 0 mm 3 mps 753 mmHg 80%
    23:00 +9°C° 0 mm 3 mps 753 mmHg 81%
    Show more